Location: Lugrin
(46.4033°N, 6.6674°E)
Time: 16:17:02
(UTC+00:00)

Meteor 1-24 Rocket - Pass Details

Date: 18 September 2020
Orbit: 790 x 927 km, 81.2° (Epoch: 29 October)

Event Time Altitude Azimuth Distance (km) Brightness Sun altitude
Rises 20:48:55 0° 344° (NNW) 3,351 7.6 -30.9°
Reaches altitude 10° 20:51:20 10° 339° (NNW) 2,431 6.8 -31.2°
Enters shadow 20:56:32 48° 268° (W) 1,086 4.4 -31.8°
